FW6001 Weather Reports


time (UTC)temp
C
wind
direction
speed
KPH
gust
KPH
rain 1hr
cm
rain 24hr
cm
rain mn
cm
humidity
%
barometer
mb
20260505070039 7 228 20.9 49.9 0.00 0.00 0.00 78 1006.1
20260505064536 7 212 20.9 53.1 0.00 0.00 0.00 77 1005.6
20260505063044 7 159 25.7 59.5 0.00 0.00 0.00 77 1005.0
20260505061534 7 153 29.0 49.9 0.00 0.00 0.00 76 1005.0
20260505060025 7 162 24.1 51.5 0.00 0.00 0.00 76 1004.5
20260505054535 7 193 20.9 38.6 0.00 0.00 0.00 76 1004.3
20260505053021 7 289 19.3 43.5 0.00 0.00 0.00 75 1004.4
20260505051534 7 226 14.5 46.7 0.00 0.00 0.00 75 1004.4
20260505041512 8 135 22.5 54.7 0.00 0.00 0.00 75 1003.6
20260505040009 8 212 19.3 49.9 0.00 0.00 0.00 76 1003.6
20260505034507 8 165 22.5 46.7 0.00 0.00 0.00 75 1003.3
20260505033004 8 188 22.5 49.9 0.00 0.00 0.00 74 1002.9
20260505031503 8 117 25.7 54.7 0.00 0.00 0.00 73 1002.8
20260505030106 8 229 24.1 41.8 0.00 0.00 0.00 73 1002.7
20260505024612 8 115 19.3 43.5 0.00 0.00 0.00 72 1002.7
20260505023059 8 182 19.3 51.5 0.00 0.00 0.00 70 1002.5
20260505021557 9 201 17.7 54.7 0.00 0.00 0.00 68 1002.1
20260505014549 9 193 19.3 45.1 0.00 0.00 0.00 65 1001.6
20260505013048 9 151 24.1 46.7 0.00 0.00 0.00 65 1001.5
20260505011547 9 248 19.3 46.7 0.00 0.00 0.00 65 1001.5
20260505010105 8 199 20.9 49.9 0.00 0.00 0.00 65 1001.5
20260505004546 7 188 16.1 30.6 0.00 0.00 0.00 67 1001.4
20260505003049 7 228 8.0 37.0 0.00 0.00 0.00 67 1001.5
20260505001543 7 235 11.3 33.8 0.00 0.00 0.00 62 1001.3
20260505000046 8 182 14.5 41.8 0.00 0.00 0.00 58 1000.9
20260504234539 8 254 17.7 33.8 0.00 0.00 0.00 58 1000.5
20260504233045 8 181 22.5 45.1 0.00 0.00 0.00 61 1000.5
20260504231537 8 146 19.3 45.1 0.00 0.00 0.00 61 1000.3
20260504230034 8 205 22.5 54.7 0.00 0.00 0.00 60 999.9
20260504224536 9 229 22.5 56.3 0.00 0.00 0.00 59 999.7
20260504223033 8 156 30.6 51.5 0.00 0.00 0.00 60 999.5
20260504221532 9 176 22.5 46.7 0.00 0.00 0.00 60 999.6
20260504220031 9 140 27.4 46.7 0.00 0.00 0.00 61 999.1
20260504214630 10 169 17.7 45.1 0.00 0.00 0.00 60 999.6
20260504213029 10 110 27.4 49.9 0.00 0.00 0.00 59 999.2
20260504211523 9 200 29.0 61.2 0.00 0.00 0.00 62 998.7
20260504210022 9 205 29.0 66.0 0.00 0.00 0.00 62 999.0
20260504204521 9 209 27.4 56.3 0.00 0.00 0.00 63 998.6
20260504203020 8 182 29.0 54.7 0.00 0.00 0.00 63 998.5
20260504201516 8 136 30.6 66.0 0.00 0.00 0.00 65 997.9
20260504200018 8 169 29.0 67.6 0.00 0.00 0.00 67 998.1
20260504194513 8 152 30.6 67.6 0.00 0.00 0.00 69 997.2
20260504193008 7 138 29.0 64.4 0.00 0.00 0.00 70 996.6
20260504191505 7 178 40.2 67.6 0.00 0.00 0.00 71 996.6
20260504190004 7 180 33.8 61.2 0.00 0.00 0.00 72 995.9
20260504184601 7 214 37.0 83.7 0.00 0.00 0.00 72 995.9
20260504183056 6 171 37.0 74.0 0.00 0.00 0.00 74 995.4
20260504181553 6 115 41.8 67.6 0.00 0.00 0.00 76 995.1
20260504180050 6 140 37.0 77.2 0.00 0.00 0.00 78 995.2
20260504174553 6 202 33.8 91.7 0.00 0.00 0.00 79 994.8
20260504173044 5 188 41.8 74.0 0.00 0.00 0.00 81 995.1
20260504171541 5 186 40.2 75.6 0.00 0.00 0.00 83 995.2
20260504120129 2 190 12.9 40.2 0.00 0.00 0.00 91 984.7
20260504081527 2 228 9.7 29.0 0.00 0.00 0.00 93 974.9